This is the latest recevied weather packets stored in our database for station/object DB0GIS-11. If no packets are shown the sender has not sent any weather packets the latest 10 day(s).
| Time | Temp. | Humidity | Pressure | Rain* | Wind** | Luminosity | Snow |
|---|---|---|---|---|---|---|---|
| 1777592853 | 9.44° C | 54% | 1024.9 hPa | 0 mm | - | - | - |
| 1777592253 | 9.44° C | 54% | 1024.7 hPa | 0 mm | - | - | - |
| 1777590457 | 10° C | 53% | 1024.8 hPa | 0 mm | - | - | - |
| 1777589856 | 10° C | 53% | 1024.8 hPa | 0 mm | - | - | - |
| 1777589257 | 10° C | 53% | 1024.7 hPa | 0 mm | - | - | - |
| 1777586246 | 10° C | 50% | 1024.5 hPa | 0 mm | - | - | - |
| 1777585648 | 10.56° C | 49% | 1024.6 hPa | 0 mm | - | - | - |
| 1777583257 | 11.11° C | 47% | 1024.6 hPa | 0 mm | - | - | - |
| 1777582667 | 11.67° C | 46% | 1024.5 hPa | 0 mm | - | - | - |
| 1777582052 | 11.67° C | 46% | 1024.2 hPa | 0 mm | - | - | - |
| 1777579708 | 12.22° C | 43% | 1023.9 hPa | 0 mm | - | - | - |
| 1777578445 | 12.78° C | 42% | 1023.9 hPa | 0 mm | - | - | - |
| 1777577251 | 13.33° C | 40% | 1023.6 hPa | 0 mm | - | - | - |
| 1777576652 | 13.89° C | 40% | 1023.5 hPa | 0 mm | - | - | - |
| 1777576046 | 14.44° C | 39% | 1023.5 hPa | 0 mm | - | - | - |
| 1777573662 | 17.22° C | 35% | 1023.2 hPa | 0 mm | - | - | - |
| 1777572456 | 16.11° C | 35% | 1023.2 hPa | 0 mm | - | - | - |
| 1777571851 | 16.11° C | 35% | 1023.1 hPa | 0 mm | - | - | - |
| 1777570654 | 16.67° C | 34% | 1023.2 hPa | 0 mm | - | - | - |
| 1777568849 | 17.22° C | 32% | 1023 hPa | 0 mm | - | - | - |
| 1777567059 | 17.22° C | 31% | 1023 hPa | 0 mm | - | - | - |
| 1777566448 | 17.22° C | 31% | 1023.2 hPa | 0 mm | - | - | - |
| 1777562856 | 17.22° C | 31% | 1023.6 hPa | 0 mm | - | - | - |
| 1777561653 | 17.22° C | 31% | 1023.5 hPa | 0 mm | - | - | - |
| 1777561048 | 17.22° C | 31% | 1023.4 hPa | 0 mm | - | - | - |
* Rain latest hour (hover to see other rain measurements)
** Current wind speed in m/s (hover to see current wind gust speed)